�������l�o���
Date,Time,MP-1(��Sv/h),MP-2(��Sv/h),MP-3(��Sv/h),MP-4(��Sv/h),MP-5(��Sv/h),MP-6(��Sv/h),MP-7(��Sv/h),MP-8(��Sv/h),����,����(m/s),���J
2019/09/03,00:00,0.731,1.024,0.713,1.272,0.932,0.415,0.728,0.691,-,CALM,��
2019/09/03,00:10,0.731,1.021,0.711,1.269,0.933,0.418,0.728,0.691,-,CALM,��
2019/09/03,00:20,0.732,1.023,0.713,1.271,0.934,0.417,0.729,0.690,-,CALM,��
2019/09/03,00:30,0.731,1.023,0.713,1.271,0.933,0.418,0.730,0.689,��쓌,0.6,��
2019/09/03,00:40,0.732,1.022,0.713,1.271,0.934,0.417,0.728,0.691,-,CALM,��
2019/09/03,00:50,0.731,1.025,0.714,1.272,0.933,0.418,0.727,0.691,-,CALM,��
2019/09/03,01:00,0.732,1.025,0.713,1.270,0.933,0.419,0.729,0.690,�k��,0.6,��
2019/09/03,01:10,0.732,1.025,0.713,1.271,0.933,0.419,0.728,0.690,-,CALM,��
2019/09/03,01:20,0.732,1.024,0.713,1.269,0.932,0.419,0.729,0.689,�쓌,1.1,��
2019/09/03,01:30,0.732,1.026,0.712,1.272,0.932,0.418,0.728,0.688,-,CALM,��
2019/09/03,01:40,0.732,1.023,0.714,1.272,0.934,0.416,0.729,0.690,-,CALM,��
2019/09/03,01:50,0.732,1.022,0.715,1.273,0.934,0.418,0.728,0.690,-,CALM,��
2019/09/03,02:00,0.732,1.023,0.714,1.271,0.933,0.419,0.728,0.690,�k,0.9,��
2019/09/03,02:10,0.735,1.025,0.712,1.273,0.933,0.420,0.729,0.690,�k��,1.1,��
2019/09/03,02:20,0.731,1.028,0.714,1.272,0.932,0.418,0.728,0.689,�k��,0.9,��
2019/09/03,02:30,0.735,1.026,0.714,1.272,0.935,0.419,0.729,0.690,-,CALM,��
2019/09/03,02:40,0.733,1.025,0.714,1.271,0.935,0.417,0.729,0.692,-,CALM,��
2019/09/03,02:50,0.731,1.025,0.717,1.274,0.934,0.419,0.728,0.690,�k��,0.8,��
2019/09/03,03:00,0.732,1.025,0.715,1.274,0.936,0.418,0.728,0.692,�k��,1.1,��
2019/09/03,03:10,0.730,1.024,0.715,1.274,0.934,0.419,0.728,0.691,�k,2.6,��
2019/09/03,03:20,0.733,1.025,0.716,1.272,0.933,0.418,0.728,0.690,�k,3.3,�L
2019/09/03,03:30,0.734,1.026,0.717,1.274,0.933,0.417,0.728,0.690,�k,3.8,��
2019/09/03,03:40,0.733,1.024,0.714,1.275,0.933,0.418,0.728,0.690,�k�k��,3.1,�L
2019/09/03,03:50,0.733,1.024,0.714,1.273,0.935,0.419,0.727,0.689,�k�k��,3.9,�L
2019/09/03,04:00,0.733,1.026,0.715,1.273,0.933,0.418,0.730,0.690,�k�k��,3.9,�L
2019/09/03,04:10,0.733,1.024,0.715,1.275,0.935,0.417,0.730,0.690,�k�k��,4.0,�L
2019/09/03,04:20,0.734,1.026,0.716,1.274,0.935,0.418,0.729,0.690,�k�k��,3.5,�L
2019/09/03,04:30,0.731,1.026,0.713,1.274,0.933,0.418,0.728,0.690,�k�k��,4.3,�L
2019/09/03,04:40,0.731,1.026,0.715,1.274,0.936,0.419,0.729,0.690,�k�k��,3.5,�L
2019/09/03,04:50,0.733,1.023,0.716,1.276,0.933,0.417,0.728,0.691,�k�k��,2.3,�L
2019/09/03,05:00,0.733,1.027,0.716,1.273,0.934,0.420,0.728,0.690,�k�k��,2.3,��
2019/09/03,05:10,0.733,1.026,0.716,1.274,0.935,0.418,0.728,0.690,�k�k��,2.6,��
2019/09/03,05:20,0.733,1.023,0.715,1.271,0.934,0.418,0.727,0.690,�k�k��,2.3,��
2019/09/03,05:30,0.732,1.025,0.716,1.273,0.933,0.418,0.729,0.691,�k,2.2,��
2019/09/03,05:40,0.733,1.025,0.713,1.272,0.934,0.416,0.728,0.690,�k,2.3,��
2019/09/03,05:50,0.733,1.026,0.715,1.274,0.935,0.419,0.728,0.691,�k,2.0,��
2019/09/03,06:00,0.732,1.026,0.712,1.275,0.934,0.418,0.730,0.692,�k,2.3,��
2019/09/03,06:10,0.731,1.026,0.714,1.272,0.933,0.418,0.731,0.691,�k��,2.0,��
2019/09/03,06:20,0.734,1.024,0.715,1.274,0.934,0.418,0.730,0.691,�k�k��,2.3,��
2019/09/03,06:30,0.733,1.025,0.713,1.273,0.934,0.417,0.729,0.690,�k,3.0,�L
2019/09/03,06:40,0.735,1.026,0.716,1.275,0.934,0.418,0.729,0.689,�k,2.5,�L
2019/09/03,06:50,0.732,1.026,0.713,1.274,0.935,0.418,0.729,0.691,�k�k��,3.2,�L
2019/09/03,07:00,0.734,1.024,0.716,1.275,0.934,0.419,0.730,0.692,�k�k��,3.1,�L
2019/09/03,07:10,0.733,1.024,0.714,1.274,0.932,0.418,0.730,0.690,�k�k��,2.6,�L
2019/09/03,07:20,0.733,1.026,0.715,1.274,0.934,0.418,0.730,0.691,�k�k��,3.2,�L
2019/09/03,07:30,0.733,1.025,0.716,1.274,0.932,0.417,0.730,0.691,�k�k��,3.6,��
2019/09/03,07:40,0.733,1.026,0.715,1.274,0.933,0.418,0.729,0.692,�k�k��,4.0,��
2019/09/03,07:50,0.734,1.026,0.716,1.275,0.934,0.418,0.730,0.692,�k�k��,3.5,�L
2019/09/03,08:00,0.733,1.026,0.713,1.275,0.933,0.418,0.729,0.692,�k�k��,3.7,�L
2019/09/03,08:10,0.734,1.026,0.715,1.275,0.936,0.417,0.730,0.692,�k,3.1,�L
2019/09/03,08:20,0.734,1.025,0.715,1.274,0.935,0.417,0.730,0.691,�k,3.2,��
2019/09/03,08:30,0.733,1.024,0.713,1.273,0.937,0.418,0.730,0.692,�k,3.2,��
2019/09/03,08:40,0.733,1.023,0.717,1.275,0.935,0.417,0.731,0.692,�k,3.1,�L
2019/09/03,08:50,0.734,1.026,0.716,1.274,0.935,0.417,0.730,0.690,�k,3.0,�L
2019/09/03,09:00,0.734,1.025,0.716,1.274,0.935,0.418,0.730,0.691,�k,2.8,��
2019/09/03,09:10,0.734,1.022,0.714,1.273,0.937,0.417,0.729,0.691,�k,2.3,��
2019/09/03,09:20,0.734,1.025,0.715,1.276,0.935,0.417,0.730,0.690,�k�k��,1.4,��
2019/09/03,09:30,0.734,1.019,0.714,1.275,0.935,0.417,0.731,0.691,�k,1.7,��
2019/09/03,09:40,0.733,1.022,0.714,1.277,0.935,0.415,0.730,0.690,�k,0.9,��
2019/09/03,09:50,0.735,1.019,0.715,1.274,0.934,0.416,0.730,0.691,�k�k��,0.8,�L
2019/09/03,10:00,0.732,1.020,0.715,1.274,0.936,0.417,0.730,0.692,�k,1.2,�L
2019/09/03,10:10,0.733,1.020,0.716,1.276,0.937,0.416,0.730,0.689,�k�k��,1.7,�L
2019/09/03,10:20,0.734,1.025,0.715,1.274,0.935,0.416,0.732,0.692,�k��,1.4,��
2019/09/03,10:30,0.735,1.024,0.715,1.274,0.937,0.416,0.731,0.690,��,0.9,��
2019/09/03,10:40,0.734,1.025,0.714,1.278,0.935,0.416,0.732,0.692,�쐼,1.1,��
2019/09/03,10:50,0.734,1.021,0.714,1.277,0.936,0.418,0.731,0.689,�쐼,2.0,�L
2019/09/03,11:00,0.734,1.023,0.715,1.275,0.937,0.416,0.731,0.691,�쐼,1.2,�L
2019/09/03,11:10,0.734,1.022,0.717,1.275,0.935,0.416,0.729,0.690,���쐼,0.9,�L
2019/09/03,11:20,0.734,1.023,0.716,1.276,0.938,0.417,0.730,0.691,���쐼,0.9,��
2019/09/03,11:30,0.735,1.022,0.715,1.277,0.939,0.417,0.731,0.692,���쐼,1.2,�L
2019/09/03,11:40,0.735,1.023,0.715,1.277,0.939,0.418,0.732,0.691,���쐼,0.9,��
2019/09/03,11:50,0.738,1.026,0.717,1.279,0.937,0.417,0.732,0.692,���쐼,1.5,��
2019/09/03,12:00,0.737,1.028,0.717,1.278,0.939,0.418,0.731,0.692,�쓌,1.1,��
2019/09/03,12:10,0.736,1.027,0.715,1.277,0.940,0.417,0.731,0.691,���k��,0.6,��
2019/09/03,12:20,0.734,1.031,0.715,1.277,0.939,0.418,0.732,0.691,�k�k��,1.2,��
2019/09/03,12:30,0.736,1.029,0.717,1.277,0.937,0.418,0.730,0.690,�쓌,0.8,��
2019/09/03,12:40,0.735,1.029,0.714,1.276,0.939,0.418,0.734,0.689,�k�k��,1.2,��
2019/09/03,12:50,0.735,1.028,0.714,1.276,0.937,0.417,0.733,0.690,�k,2.3,�L
2019/09/03,13:00,0.735,1.028,0.715,1.275,0.936,0.418,0.733,0.691,�k�k��,3.4,�L
2019/09/03,13:10,0.735,1.020,0.713,1.277,0.938,0.419,0.734,0.692,�k,4.1,��
2019/09/03,13:20,0.734,1.022,0.715,1.279,0.937,0.418,0.733,0.691,�k,3.4,��
2019/09/03,13:30,0.736,1.023,0.716,1.277,0.939,0.419,0.732,0.693,�k,3.9,��
2019/09/03,13:40,0.737,1.023,0.716,1.282,0.939,0.418,0.732,0.690,�k,4.9,��
2019/09/03,13:50,0.736,1.023,0.717,1.281,0.940,0.418,0.731,0.689,�k,4.4,��
2019/09/03,14:00,0.735,1.024,0.716,1.280,0.941,0.418,0.732,0.690,�k�k��,4.4,�L
2019/09/03,14:10,0.734,1.024,0.716,1.279,0.938,0.418,0.732,0.691,�k�k��,7.7,�L
2019/09/03,14:20,0.728,1.012,0.713,1.276,0.935,0.420,0.730,0.691,�k,5.4,�L
2019/09/03,14:30,0.725,0.999,0.710,1.268,0.930,0.420,0.730,0.689,�k�k��,5.6,�L
2019/09/03,14:40,0.724,0.997,0.706,1.259,0.923,0.420,0.728,0.688,-,CALM,�L
2019/09/03,14:50,0.721,0.993,0.704,1.248,0.916,0.416,0.726,0.684,�k�k��,4.2,�L
2019/09/03,15:00,0.722,0.993,0.705,1.246,0.914,0.417,0.721,0.683,�k�k��,2.8,�L
2019/09/03,15:10,0.727,0.995,0.708,1.244,0.914,0.419,0.723,0.684,�k�k��,3.1,�L
2019/09/03,15:20,0.728,0.998,0.709,1.247,0.915,0.418,0.723,0.683,�k�k��,3.0,�L
2019/09/03,15:30,0.729,1.002,0.709,1.250,0.918,0.419,0.723,0.683,�k�k��,0.9,�L
2019/09/03,15:40,0.733,1.003,0.709,1.250,0.920,0.421,0.722,0.684,�쐼,1.2,�L
2019/09/03,15:50,0.730,1.006,0.709,1.251,0.922,0.419,0.724,0.686,��쐼,3.0,�L
2019/09/03,16:00,0.731,1.008,0.711,1.253,0.921,0.420,0.724,0.686,��쐼,2.5,�L
2019/09/03,16:10,0.730,1.008,0.709,1.252,0.920,0.419,0.723,0.685,��,3.4,�L
2019/09/03,16:20,0.729,1.010,0.706,1.255,0.920,0.417,0.723,0.685,��,3.6,�L
2019/09/03,16:30,0.728,1.008,0.707,1.256,0.919,0.418,0.722,0.684,��쐼,4.0,�L
2019/09/03,16:40,0.727,1.009,0.709,1.255,0.920,0.417,0.723,0.686,��,4.3,��
2019/09/03,16:50,0.727,1.008,0.707,1.253,0.920,0.415,0.722,0.684,��쐼,3.7,��
2019/09/03,17:00,0.725,1.007,0.706,1.254,0.919,0.415,0.723,0.685,��쐼,3.6,��
2019/09/03,17:10,0.726,1.007,0.708,1.253,0.920,0.415,0.722,0.685,��쐼,4.4,��
2019/09/03,17:20,0.723,1.009,0.705,1.254,0.921,0.415,0.722,0.684,��쐼,4.0,��
2019/09/03,17:30,0.725,1.008,0.706,1.255,0.919,0.414,0.723,0.683,��,3.6,��
2019/09/03,17:40,0.724,1.005,0.705,1.253,0.919,0.414,0.724,0.685,��,2.9,��
2019/09/03,17:50,0.723,1.006,0.706,1.256,0.917,0.415,0.724,0.686,��,3.6,��
2019/09/03,18:00,0.722,1.006,0.705,1.254,0.919,0.414,0.722,0.685,��쐼,2.9,��
2019/09/03,18:10,0.724,1.008,0.706,1.256,0.920,0.414,0.722,0.684,��쐼,1.9,��
2019/09/03,18:20,0.724,1.005,0.705,1.257,0.918,0.416,0.722,0.685,��쐼,2.3,��
2019/09/03,18:30,0.723,1.011,0.706,1.257,0.917,0.416,0.723,0.687,��쐼,2.0,��
2019/09/03,18:40,0.724,1.011,0.705,1.256,0.921,0.416,0.722,0.687,��쐼,2.3,��
2019/09/03,18:50,0.725,1.010,0.706,1.256,0.922,0.416,0.724,0.687,�쐼,2.0,��
2019/09/03,19:00,0.725,1.013,0.705,1.256,0.922,0.416,0.724,0.686,�쐼,1.4,��
2019/09/03,19:10,0.727,1.011,0.705,1.257,0.922,0.416,0.724,0.686,���쐼,0.8,��
2019/09/03,19:20,0.726,1.011,0.706,1.256,0.922,0.416,0.724,0.686,��쐼,1.4,��
2019/09/03,19:30,0.726,1.013,0.708,1.259,0.921,0.415,0.724,0.687,��쐼,1.9,��
2019/09/03,19:40,0.726,1.014,0.705,1.259,0.921,0.417,0.725,0.685,���쐼,2.0,��
2019/09/03,19:50,0.727,1.011,0.706,1.259,0.923,0.415,0.724,0.685,��,2.8,��
2019/09/03,20:00,0.727,1.017,0.705,1.257,0.923,0.415,0.724,0.689,�쐼,3.1,��
2019/09/03,20:10,0.726,1.014,0.706,1.258,0.921,0.414,0.725,0.687,�쐼,2.8,��
2019/09/03,20:20,0.727,1.013,0.706,1.258,0.923,0.415,0.724,0.687,�쐼,3.1,��
2019/09/03,20:30,0.728,1.015,0.705,1.259,0.922,0.416,0.726,0.687,��쐼,3.8,��
2019/09/03,20:40,0.727,1.014,0.706,1.258,0.924,0.416,0.724,0.689,�쐼,3.5,��
2019/09/03,20:50,0.727,1.015,0.706,1.259,0.923,0.417,0.727,0.687,�쐼,2.8,��
2019/09/03,21:00,0.727,1.015,0.704,1.260,0.924,0.416,0.725,0.688,���쐼,2.3,��
2019/09/03,21:10,0.726,1.014,0.707,1.259,0.924,0.416,0.726,0.687,�쐼,2.6,��
2019/09/03,21:20,0.729,1.014,0.707,1.259,0.923,0.417,0.725,0.686,���쐼,1.7,��
2019/09/03,21:30,0.725,1.012,0.705,1.260,0.924,0.415,0.726,0.687,���쐼,2.0,��
2019/09/03,21:40,0.726,1.014,0.707,1.261,0.923,0.417,0.725,0.688,���쐼,2.3,��
2019/09/03,21:50,0.728,1.013,0.706,1.260,0.924,0.416,0.725,0.687,�쐼,1.9,��
2019/09/03,22:00,0.728,1.013,0.707,1.259,0.923,0.416,0.724,0.688,���쐼,2.2,��
2019/09/03,22:10,0.727,1.017,0.707,1.262,0.923,0.416,0.725,0.689,���k��,1.7,��
2019/09/03,22:20,0.727,1.015,0.706,1.262,0.923,0.415,0.726,0.689,��,2.0,��
2019/09/03,22:30,0.728,1.015,0.708,1.258,0.925,0.416,0.727,0.688,��,2.3,��
2019/09/03,22:40,0.729,1.016,0.705,1.262,0.924,0.415,0.726,0.688,���k��,2.0,��
2019/09/03,22:50,0.727,1.018,0.708,1.262,0.925,0.416,0.726,0.687,���k��,2.0,��
2019/09/03,23:00,0.727,1.015,0.706,1.260,0.924,0.417,0.726,0.688,���k��,1.7,��
2019/09/03,23:10,0.728,1.013,0.707,1.261,0.924,0.417,0.724,0.687,�k�k��,0.9,��
2019/09/03,23:20,0.728,1.019,0.708,1.263,0.924,0.416,0.725,0.688,���k��,1.1,��
2019/09/03,23:30,0.728,1.017,0.708,1.263,0.924,0.417,0.725,0.687,���k��,0.8,��
2019/09/03,23:40,0.728,1.017,0.709,1.261,0.925,0.417,0.725,0.688,�k�k��,0.6,��
2019/09/03,23:50,0.726,1.018,0.708,1.262,0.925,0.415,0.726,0.688,��,0.6,��
